This is the latest recevied weather packets stored in our database for station/object KO4DYK. If no packets are shown the sender has not sent any weather packets the latest 10 day(s).
| Time | Temp. | Humidity | Pressure | Rain* | Wind** | Luminosity | Snow |
|---|---|---|---|---|---|---|---|
| 1788565103 | 35° C | 55% | 1014.4 hPa | 0 mm | - | 28 W/m² | - |
| 1788564799 | 35° C | 55% | 1014.1 hPa | 0 mm | - | 31 W/m² | - |
| 1788564495 | 34.44° C | 55% | 1014.3 hPa | 0 mm | - | 36 W/m² | - |
| 1788564192 | 34.44° C | 60% | 1014.2 hPa | 0 mm | - | 40 W/m² | - |
| 1788563887 | 34.44° C | 59% | 1014.1 hPa | 0 mm | - | 43 W/m² | - |
| 1788563587 | 35° C | 60% | 1014.2 hPa | 0 mm | - | 46 W/m² | - |
| 1788563282 | 35.56° C | 59% | 1014.2 hPa | 0 mm | - | 49 W/m² | - |
| 1788562981 | 35.56° C | 58% | 1014.3 hPa | 0 mm | - | 50 W/m² | - |
| 1788562676 | 36.11° C | 60% | 1014.3 hPa | 0 mm | - | 50 W/m² | - |
| 1788562369 | 36.67° C | 55% | 1014.3 hPa | 0 mm | - | 52 W/m² | - |
| 1788562068 | 36.67° C | 49% | 1014.1 hPa | 0 mm | - | 55 W/m² | - |
| 1788561764 | 37.22° C | 47% | 1014.1 hPa | 0 mm | - | 61 W/m² | - |
| 1788561463 | 37.78° C | 48% | 1014.2 hPa | 0 mm | - | 66 W/m² | - |
| 1788561158 | 38.33° C | 47% | 1014.1 hPa | 0 mm | - | 91 W/m² | - |
| 1788560855 | 38.33° C | 47% | 1014.3 hPa | 0 mm | - | 77 W/m² | - |
| 1788560550 | 38.33° C | 45% | 1014.3 hPa | 0 mm | - | 159 W/m² | - |
| 1788560263 | 37.78° C | 47% | 1014.3 hPa | 0 mm | - | 218 W/m² | - |
| 1788559944 | 37.78° C | 46% | 1014.1 hPa | 0 mm | - | 237 W/m² | - |
| 1788559639 | 37.22° C | 47% | 1014.1 hPa | 0 mm | - | 244 W/m² | - |
| 1788559334 | 37.78° C | 47% | 1014.2 hPa | 0 mm | - | 251 W/m² | - |
| 1788559033 | 38.33° C | 46% | 1014.2 hPa | 0 mm | - | 314 W/m² | - |
| 1788558729 | 38.89° C | 43% | 1014.2 hPa | 0 mm | - | 290 W/m² | - |
| 1788558441 | 38.89° C | 44% | 1014.1 hPa | 0 mm | - | 345 W/m² | - |
| 1788558120 | 37.78° C | 45% | 1014.3 hPa | 0 mm | - | 377 W/m² | - |
| 1788557818 | 37.78° C | 45% | 1014.3 hPa | 0 mm | - | 390 W/m² | - |
* Rain latest hour (hover to see other rain measurements)
** Current wind speed in m/s (hover to see current wind gust speed)